Tracking 35055 objects as of 18-Aug-2026
HD Live streaming from Space Station
objects crossing your sky now

KANYINI

Track KANYINI now!
10-day predictions
KANYINI is classified as:


NORAD ID: 60556
Int'l Code: 2024-149CS
Launch date: August 16, 2024
Source: Australia (AUS)
Launch site: AIR FORCE WESTERN TEST RANGE (AFWTR)

Uplink (MHz):
Downlink (MHz): 400.500
Beacon (MHz):
Mode: 9k6 FSK
Call sign:
Status: Unknown

Your satellite tracking list
Your tracking list is empty




NASA's NSSDC Master Catalog

Two Line Element Set (TLE):
1 60556U 24149CS  26230.23695904  .00049828  00000-0  67615-3 0  9992
2 60556  97.3688 319.0188 0002336  65.6969 294.4531 15.57495258112159
Source of the keplerian elements: AFSPC